FDX8500 KCOS-KSAN

Flight info

Callsign FDX8500
Flight time 1h 50m
Altitude 36000
Route DRAKE PUB RSK DRK J96 PKE LUCKI1
Aircraft B77L/H-SDE1E2E3FGHIJ2J3J4J5M1RWXY/LB1D1

Departure

Time 2026-04-21 23:05
Airport City of Colorado Springs Municipal Airport (KCOS)

Arrival

Time 2026-04-22 00:55
Airport San Diego International Airport (KSAN)
Time Latitude Longitude Altitude Speed Heading
2026-04-21 22:40 38.81468 -104.72119 6175 ft 0 kts 270°
2026-04-21 22:55 38.81468 -104.72092 6179 ft 3 kts 270°
2026-04-21 22:55 38.81464 -104.72070 6180 ft 4 kts 345°
2026-04-21 22:55 38.81441 -104.72064 6180 ft 4 kts 345°
2026-04-21 22:55 38.81416 -104.72059 6177 ft 4 kts
2026-04-21 22:56 38.81389 -104.72060 6176 ft 4 kts
2026-04-21 22:56 38.81362 -104.72060 6176 ft 4 kts 357°
2026-04-21 22:56 38.81336 -104.72056 6177 ft 4 kts 339°
2026-04-21 22:56 38.81315 -104.72037 6176 ft 4 kts 309°
2026-04-21 22:57 38.81297 -104.72012 6178 ft 4 kts 316°
2026-04-21 22:57 38.81278 -104.71987 6178 ft 4 kts 316°
2026-04-21 22:57 38.81257 -104.71965 6177 ft 4 kts 326°
2026-04-21 22:57 38.81242 -104.71952 6177 ft 1 kts 324°
2026-04-21 23:00 38.81257 -104.71946 6177 ft 4 kts 42°
2026-04-21 23:00 38.81260 -104.71914 6176 ft 4 kts 88°
2026-04-21 23:00 38.81261 -104.71854 6171 ft 10 kts 90°
2026-04-21 23:00 38.81261 -104.71785 6172 ft 7 kts 87°
2026-04-21 23:01 38.81286 -104.71741 6178 ft 7 kts 27°
2026-04-21 23:01 38.81352 -104.71731 6177 ft 17 kts
2026-04-21 23:01 38.81479 -104.71731 6178 ft 18 kts 359°
2026-04-21 23:01 38.81606 -104.71732 6181 ft 18 kts
2026-04-21 23:02 38.81735 -104.71731 6181 ft 18 kts
2026-04-21 23:02 38.81864 -104.71731 6183 ft 18 kts
2026-04-21 23:02 38.81992 -104.71731 6184 ft 18 kts 360°
2026-04-21 23:02 38.82121 -104.71731 6186 ft 18 kts 360°
2026-04-21 23:03 38.82223 -104.71705 6189 ft 14 kts 45°
2026-04-21 23:03 38.82219 -104.71595 6190 ft 14 kts 146°
2026-04-21 23:03 38.82123 -104.71590 6186 ft 14 kts 184°
2026-04-21 23:03 38.82006 -104.71591 6184 ft 30 kts 180°
2026-04-21 23:04 38.81544 -104.71593 6179 ft 101 kts 180°
2026-04-21 23:04 38.80621 -104.71594 6161 ft 161 kts 180°
2026-04-21 23:04 38.79366 -104.71583 6169 ft 201 kts 178°
2026-04-21 23:04 38.77958 -104.71436 6736 ft 201 kts 176°
2026-04-21 23:05 38.76574 -104.71352 7479 ft 195 kts 177°
2026-04-21 23:05 38.75211 -104.71302 8087 ft 198 kts 178°
2026-04-21 23:05 38.73768 -104.71219 8220 ft 221 kts 166°
2026-04-21 23:05 38.72407 -104.70169 8315 ft 245 kts 128°
2026-04-21 23:06 38.71557 -104.68179 8502 ft 266 kts 117°
2026-04-21 23:06 38.70723 -104.65978 8979 ft 280 kts 119°
2026-04-21 23:06 38.69842 -104.63708 9511 ft 289 kts 119°
2026-04-21 23:06 38.68945 -104.61432 10263 ft 292 kts 120°
2026-04-21 23:07 38.67984 -104.59052 10605 ft 313 kts 120°
2026-04-21 23:07 38.66928 -104.56475 10642 ft 339 kts 119°
2026-04-21 23:07 38.65792 -104.53701 10818 ft 364 kts 119°
2026-04-21 23:07 38.64581 -104.50763 11386 ft 377 kts 120°
2026-04-21 23:08 38.63335 -104.47755 12062 ft 387 kts 120°
2026-04-21 23:08 38.61918 -104.44834 12690 ft 390 kts 132°
2026-04-21 23:08 38.59803 -104.42720 13375 ft 394 kts 155°
2026-04-21 23:08 38.57204 -104.41665 14246 ft 393 kts 172°
2026-04-21 23:09 38.54476 -104.41528 15004 ft 395 kts 184°
2026-04-21 23:09 38.51704 -104.41699 15739 ft 401 kts 185°
2026-04-21 23:09 38.49841 -104.41829 16258 ft 405 kts 184°
2026-04-21 23:09 38.46084 -104.42074 17384 ft 410 kts 184°
2026-04-21 23:10 38.43205 -104.42238 18165 ft 416 kts 184°
2026-04-21 23:10 38.41269 -104.42337 18608 ft 421 kts 184°
2026-04-21 23:10 38.38328 -104.42478 19310 ft 425 kts 184°
2026-04-21 23:10 38.34383 -104.42682 20265 ft 425 kts 186°
2026-04-21 23:11 38.32413 -104.43123 20575 ft 427 kts 200°
2026-04-21 23:11 38.29809 -104.44844 21141 ft 429 kts 219°
2026-04-21 23:11 38.27658 -104.47488 21846 ft 430 kts 233°
2026-04-21 23:11 38.26084 -104.50732 22506 ft 430 kts 243°
2026-04-21 23:12 38.24720 -104.54160 23053 ft 437 kts 244°
2026-04-21 23:12 38.23385 -104.57614 23669 ft 441 kts 244°
2026-04-21 23:12 38.22028 -104.61140 24217 ft 444 kts 244°
2026-04-21 23:12 38.20654 -104.64685 24778 ft 448 kts 244°
2026-04-21 23:13 38.19260 -104.68241 25312 ft 451 kts 244°
2026-04-21 23:13 38.17840 -104.71829 25737 ft 457 kts 244°
2026-04-21 23:13 38.16391 -104.75462 26226 ft 462 kts 243°
2026-04-21 23:13 38.14928 -104.79114 26734 ft 465 kts 243°
2026-04-21 23:14 38.13470 -104.82738 27254 ft 468 kts 243°
2026-04-21 23:14 38.11977 -104.86445 27747 ft 472 kts 243°
2026-04-21 23:14 38.10469 -104.90180 28222 ft 476 kts 243°
2026-04-21 23:14 38.08949 -104.93943 28735 ft 480 kts 243°
2026-04-21 23:15 38.07417 -104.97734 29341 ft 480 kts 243°
2026-04-21 23:15 38.05904 -105.01472 29753 ft 483 kts 243°
2026-04-21 23:15 38.04363 -105.05276 30219 ft 484 kts 243°
2026-04-21 23:15 38.02818 -105.09084 30741 ft 483 kts 243°
2026-04-21 23:16 38.01289 -105.12849 31368 ft 479 kts 243°
2026-04-21 23:16 37.99776 -105.16571 31848 ft 478 kts 243°
2026-04-21 23:16 37.98243 -105.20336 32297 ft 479 kts 242°
2026-04-21 23:16 37.96712 -105.24093 32832 ft 477 kts 242°
2026-04-21 23:17 37.95186 -105.27836 33268 ft 478 kts 242°
2026-04-21 23:17 37.93677 -105.31528 33736 ft 476 kts 242°
2026-04-21 23:17 37.92154 -105.35253 34151 ft 476 kts 242°
2026-04-21 23:17 37.90629 -105.38978 34587 ft 474 kts 242°
2026-04-21 23:18 37.89106 -105.42694 34938 ft 474 kts 241°
2026-04-21 23:18 37.87585 -105.46400 35325 ft 473 kts 241°
2026-04-21 23:18 37.86064 -105.50100 35678 ft 472 kts 241°
2026-04-21 23:18 37.84567 -105.53742 36018 ft 472 kts 241°
2026-04-21 23:19 37.81505 -105.61168 36008 ft 476 kts 241°
2026-04-21 23:19 37.78459 -105.68545 35992 ft 469 kts 241°
2026-04-21 23:20 37.75454 -105.75803 36010 ft 467 kts 241°
2026-04-21 23:20 37.72441 -105.83064 36026 ft 466 kts 241°
2026-04-21 23:21 37.69426 -105.90311 36045 ft 466 kts 241°
2026-04-21 23:21 37.66415 -105.97533 36030 ft 467 kts 241°
2026-04-21 23:22 37.63370 -106.04822 36076 ft 468 kts 241°
2026-04-21 23:22 37.60322 -106.12100 36104 ft 469 kts 241°
2026-04-21 23:23 37.57290 -106.19323 36121 ft 469 kts 241°
2026-04-21 23:23 37.54222 -106.26616 36132 ft 469 kts 241°
2026-04-21 23:24 37.51156 -106.33887 36121 ft 469 kts 241°
2026-04-21 23:24 37.48101 -106.41114 36129 ft 467 kts 241°
2026-04-21 23:25 37.45065 -106.48285 36104 ft 465 kts 241°
2026-04-21 23:25 37.42021 -106.55456 36093 ft 462 kts 241°
2026-04-21 23:26 37.38992 -106.62577 36081 ft 461 kts 241°
2026-04-21 23:26 37.35975 -106.69649 36091 ft 460 kts 240°
2026-04-21 23:27 37.32952 -106.76723 36086 ft 460 kts 241°
2026-04-21 23:27 37.29916 -106.83812 36087 ft 460 kts 241°
2026-04-21 23:28 37.26891 -106.90860 36188 ft 461 kts 241°
2026-04-21 23:28 37.25368 -106.94402 36070 ft 461 kts 240°
2026-04-21 23:28 37.23840 -106.97952 36069 ft 461 kts 240°
2026-04-21 23:29 37.20792 -107.05025 36039 ft 462 kts 240°
2026-04-21 23:29 37.17719 -107.12139 36038 ft 461 kts 240°
2026-04-21 23:30 37.14672 -107.19175 36024 ft 461 kts 240°
2026-04-21 23:30 37.11607 -107.26236 36031 ft 459 kts 240°
2026-04-21 23:31 37.08564 -107.33238 36015 ft 459 kts 240°
2026-04-21 23:31 37.05497 -107.40271 36037 ft 458 kts 240°
2026-04-21 23:32 37.02452 -107.47245 36053 ft 458 kts 240°
2026-04-21 23:32 36.99403 -107.54213 36065 ft 457 kts 240°
2026-04-21 23:33 36.96339 -107.61199 36069 ft 457 kts 240°
2026-04-21 23:33 36.93288 -107.68137 36069 ft 457 kts 240°
2026-04-21 23:34 36.90217 -107.75111 36051 ft 457 kts 240°
2026-04-21 23:34 36.87143 -107.82074 35979 ft 457 kts 240°
2026-04-21 23:35 36.84083 -107.88992 36001 ft 457 kts 240°
2026-04-21 23:35 36.80995 -107.95960 36024 ft 456 kts 240°
2026-04-21 23:36 36.77927 -108.02871 36040 ft 456 kts 240°
2026-04-21 23:36 36.74863 -108.09755 36067 ft 456 kts 240°
2026-04-21 23:37 36.71806 -108.16690 36076 ft 456 kts 240°
2026-04-21 23:37 36.68764 -108.23646 36069 ft 456 kts 240°
2026-04-21 23:38 36.65742 -108.30542 36073 ft 456 kts 240°
2026-04-21 23:38 36.62690 -108.37480 36039 ft 456 kts 240°
2026-04-21 23:39 36.59629 -108.44419 36018 ft 456 kts 240°
2026-04-21 23:39 36.56582 -108.51312 35983 ft 456 kts 240°
2026-04-21 23:40 36.53520 -108.58225 35924 ft 456 kts 240°
2026-04-21 23:40 36.50471 -108.65095 35932 ft 455 kts 240°
2026-04-21 23:41 36.47410 -108.71975 35936 ft 455 kts 240°
2026-04-21 23:41 36.44341 -108.78860 35934 ft 454 kts 240°
2026-04-21 23:42 36.41271 -108.85733 35950 ft 454 kts 240°
2026-04-21 23:42 36.38206 -108.92582 35949 ft 455 kts 240°
2026-04-21 23:43 36.35118 -108.99465 35974 ft 456 kts 240°
2026-04-21 23:43 36.32027 -109.06342 35977 ft 456 kts 240°
2026-04-21 23:44 36.28941 -109.13195 35981 ft 457 kts 241°
2026-04-21 23:44 36.25834 -109.20080 35969 ft 457 kts 241°
2026-04-21 23:45 36.21182 -109.30360 35969 ft 457 kts 241°
2026-04-21 23:46 36.18084 -109.37190 35977 ft 456 kts 241°
2026-04-21 23:46 36.14964 -109.44054 35952 ft 456 kts 241°
2026-04-21 23:47 36.11843 -109.50905 35964 ft 455 kts 241°
2026-04-21 23:47 36.08745 -109.57692 35936 ft 455 kts 241°
2026-04-21 23:48 36.05627 -109.64509 35940 ft 454 kts 242°
2026-04-21 23:48 36.02532 -109.71263 35935 ft 454 kts 242°
2026-04-21 23:49 35.99406 -109.78072 35935 ft 454 kts 241°
2026-04-21 23:49 35.96301 -109.84819 35936 ft 454 kts 242°
2026-04-21 23:50 35.93167 -109.91616 35933 ft 455 kts 242°
2026-04-21 23:50 35.90029 -109.98409 35937 ft 455 kts 242°
2026-04-21 23:51 35.86908 -110.05151 35936 ft 455 kts 242°
2026-04-21 23:51 35.83770 -110.11915 35938 ft 454 kts 242°
2026-04-21 23:52 35.80619 -110.18696 35936 ft 454 kts 242°
2026-04-21 23:52 35.77493 -110.25408 35936 ft 453 kts 242°
2026-04-21 23:53 35.74343 -110.32158 35934 ft 453 kts 242°
2026-04-21 23:53 35.71217 -110.38845 35922 ft 452 kts 242°
2026-04-21 23:54 35.68072 -110.45557 35920 ft 452 kts 242°
2026-04-21 23:54 35.64918 -110.52278 35924 ft 452 kts 242°
2026-04-21 23:55 35.61786 -110.58938 35926 ft 453 kts 242°
2026-04-21 23:55 35.58623 -110.65651 35920 ft 453 kts 242°
2026-04-21 23:56 35.55987 -110.71234 35918 ft 453 kts 241°
2026-04-21 23:56 35.52829 -110.77910 35918 ft 453 kts 241°
2026-04-21 23:57 35.49661 -110.84597 35922 ft 453 kts 241°
2026-04-21 23:57 35.45976 -110.92357 35912 ft 451 kts 241°
2026-04-21 23:58 35.43341 -110.97893 35916 ft 450 kts 241°
2026-04-21 23:58 35.40176 -111.04535 35923 ft 449 kts 241°
2026-04-21 23:59 35.37037 -111.11108 35925 ft 448 kts 241°
2026-04-21 23:59 35.33885 -111.17696 35952 ft 446 kts 240°
2026-04-22 00:00 35.30755 -111.24225 35930 ft 442 kts 241°
2026-04-22 00:00 35.27666 -111.30656 35971 ft 438 kts 241°
2026-04-22 00:01 35.24580 -111.37069 35981 ft 435 kts 241°
2026-04-22 00:01 35.21501 -111.43457 35994 ft 435 kts 241°
2026-04-22 00:02 35.18411 -111.49857 35996 ft 437 kts 240°
2026-04-22 00:02 35.15334 -111.56216 36008 ft 438 kts 240°
2026-04-22 00:02 35.13770 -111.59446 36196 ft 439 kts 240°
2026-04-22 00:03 35.12212 -111.62658 36198 ft 440 kts 240°
2026-04-22 00:03 35.09099 -111.69067 36197 ft 441 kts 240°
2026-04-22 00:04 35.05952 -111.75537 36179 ft 442 kts 240°
2026-04-22 00:04 35.02814 -111.81975 36132 ft 443 kts 240°
2026-04-22 00:05 34.99658 -111.88435 36077 ft 443 kts 240°
2026-04-22 00:05 34.96516 -111.94859 36070 ft 443 kts 240°
2026-04-22 00:06 34.93342 -112.01334 36057 ft 443 kts 240°
2026-04-22 00:06 34.90190 -112.07755 36020 ft 443 kts 240°
2026-04-22 00:07 34.87014 -112.14209 36030 ft 443 kts 240°
2026-04-22 00:07 34.83876 -112.20576 36009 ft 433 kts 240°
2026-04-22 00:08 34.80800 -112.26807 36053 ft 431 kts 240°
2026-04-22 00:08 34.77695 -112.33087 36095 ft 431 kts 240°
2026-04-22 00:09 34.74608 -112.39320 36117 ft 433 kts 240°
2026-04-22 00:09 34.71519 -112.45631 36119 ft 433 kts 243°
2026-04-22 00:10 34.69112 -112.52314 35943 ft 433 kts 251°
2026-04-22 00:10 34.67303 -112.59281 35944 ft 434 kts 252°
2026-04-22 00:11 34.65476 -112.66298 35942 ft 435 kts 252°
2026-04-22 00:11 34.63629 -112.73322 35950 ft 435 kts 252°
2026-04-22 00:12 34.61785 -112.80291 35951 ft 435 kts 251°
2026-04-22 00:12 34.59920 -112.87316 35931 ft 436 kts 251°
2026-04-22 00:13 34.58065 -112.94284 35925 ft 437 kts 251°
2026-04-22 00:13 34.56186 -113.01335 35917 ft 436 kts 251°
2026-04-22 00:14 34.54325 -113.08292 35920 ft 435 kts 251°
2026-04-22 00:14 34.52451 -113.15278 35920 ft 434 kts 251°
2026-04-22 00:15 34.50594 -113.22185 35908 ft 432 kts 251°
2026-04-22 00:15 34.48728 -113.29111 35897 ft 431 kts 251°
2026-04-22 00:16 34.46861 -113.36020 35902 ft 430 kts 251°
2026-04-22 00:16 34.45005 -113.42867 35891 ft 429 kts 251°
2026-04-22 00:17 34.43134 -113.49760 35889 ft 429 kts 250°
2026-04-22 00:17 34.41273 -113.56596 35881 ft 428 kts 250°
2026-04-22 00:18 34.39400 -113.63458 35883 ft 428 kts 250°
2026-04-22 00:18 34.37525 -113.70311 35878 ft 428 kts 250°
2026-04-22 00:19 34.35662 -113.77106 35894 ft 427 kts 250°
2026-04-22 00:19 34.33780 -113.83949 35881 ft 427 kts 250°
2026-04-22 00:20 34.31911 -113.90732 35873 ft 426 kts 250°
2026-04-22 00:20 34.30025 -113.97557 35864 ft 426 kts 250°
2026-04-22 00:21 34.28157 -114.04309 35868 ft 426 kts 250°
2026-04-22 00:21 34.26271 -114.11096 35889 ft 425 kts 250°
2026-04-22 00:22 34.24377 -114.17883 35869 ft 425 kts 250°
2026-04-22 00:22 34.22494 -114.24611 35857 ft 425 kts 250°
2026-04-22 00:23 34.20592 -114.31397 35865 ft 424 kts 250°
2026-04-22 00:23 34.18701 -114.38126 35868 ft 424 kts 250°
2026-04-22 00:24 34.16810 -114.44841 35862 ft 424 kts 250°
2026-04-22 00:24 34.14908 -114.51581 35869 ft 423 kts 250°
2026-04-22 00:25 34.13002 -114.58319 35875 ft 422 kts 250°
2026-04-22 00:25 34.11108 -114.65001 35868 ft 422 kts 250°
2026-04-22 00:26 34.08913 -114.71560 35870 ft 420 kts 242°
2026-04-22 00:26 34.06096 -114.77717 35893 ft 421 kts 241°
2026-04-22 00:27 34.03265 -114.83925 35874 ft 421 kts 241°
2026-04-22 00:27 34.00494 -114.90157 35882 ft 421 kts 242°
2026-04-22 00:28 33.97744 -114.96371 35881 ft 422 kts 242°
2026-04-22 00:28 33.94967 -115.02615 35906 ft 422 kts 242°
2026-04-22 00:29 33.92183 -115.08830 35905 ft 421 kts 242°
2026-04-22 00:29 33.89408 -115.15014 35903 ft 421 kts 242°
2026-04-22 00:30 33.86616 -115.21228 35902 ft 420 kts 242°
2026-04-22 00:30 33.83847 -115.27384 35912 ft 419 kts 242°
2026-04-22 00:31 33.81065 -115.33558 35916 ft 419 kts 242°
2026-04-22 00:31 33.78296 -115.39693 35922 ft 419 kts 242°
2026-04-22 00:32 33.75514 -115.45847 35930 ft 418 kts 241°
2026-04-22 00:32 33.72734 -115.51981 35917 ft 422 kts 242°
2026-04-22 00:33 33.69921 -115.58311 35405 ft 442 kts 242°
2026-04-22 00:33 33.68471 -115.61621 34778 ft 447 kts 242°
2026-04-22 00:33 33.67025 -115.64916 34175 ft 441 kts 242°
2026-04-22 00:33 33.65613 -115.68126 33520 ft 436 kts 242°
2026-04-22 00:34 33.64200 -115.71328 32778 ft 431 kts 242°
2026-04-22 00:34 33.62793 -115.74508 31902 ft 430 kts 242°
2026-04-22 00:34 33.61336 -115.77648 30901 ft 432 kts 239°
2026-04-22 00:34 33.59658 -115.80651 30009 ft 433 kts 236°
2026-04-22 00:35 33.57901 -115.83564 29300 ft 427 kts 235°
2026-04-22 00:35 33.56175 -115.86420 28680 ft 419 kts 235°
2026-04-22 00:35 33.54523 -115.89219 28064 ft 415 kts 236°
2026-04-22 00:35 33.52876 -115.92058 27373 ft 411 kts 236°
2026-04-22 00:36 33.51249 -115.94875 26664 ft 409 kts 236°
2026-04-22 00:36 33.49639 -115.97661 26098 ft 404 kts 236°
2026-04-22 00:36 33.48047 -116.00409 25517 ft 399 kts 236°
2026-04-22 00:36 33.46461 -116.03143 24873 ft 397 kts 236°
2026-04-22 00:37 33.44906 -116.05822 24229 ft 395 kts 236°
2026-04-22 00:37 33.43336 -116.08527 23591 ft 394 kts 236°
2026-04-22 00:37 33.41775 -116.11214 22901 ft 391 kts 236°
2026-04-22 00:37 33.40225 -116.13881 22407 ft 386 kts 236°
2026-04-22 00:38 33.38694 -116.16511 21917 ft 381 kts 237°
2026-04-22 00:38 33.37201 -116.19077 21429 ft 380 kts 236°
2026-04-22 00:38 33.35681 -116.21684 20997 ft 382 kts 236°
2026-04-22 00:38 33.34080 -116.24175 20526 ft 385 kts 227°
2026-04-22 00:39 33.31958 -116.26162 20058 ft 391 kts 213°
2026-04-22 00:39 33.29512 -116.27613 19615 ft 391 kts 209°
2026-04-22 00:39 33.27037 -116.29017 19150 ft 393 kts 209°
2026-04-22 00:39 33.24590 -116.30414 18671 ft 391 kts 209°
2026-04-22 00:40 33.22141 -116.31823 18158 ft 388 kts 209°
2026-04-22 00:40 33.19727 -116.33222 17644 ft 383 kts 210°
2026-04-22 00:40 33.17350 -116.34606 17165 ft 377 kts 210°
2026-04-22 00:40 33.15005 -116.35975 16684 ft 372 kts 210°
2026-04-22 00:41 33.13469 -116.36873 16384 ft 369 kts 210°
2026-04-22 00:41 33.10432 -116.38649 15835 ft 365 kts 210°
2026-04-22 00:41 33.08154 -116.39982 15441 ft 363 kts 210°
2026-04-22 00:41 33.06657 -116.40857 15155 ft 361 kts 210°
2026-04-22 00:42 33.04410 -116.42168 14672 ft 357 kts 210°
2026-04-22 00:42 33.02189 -116.43461 14242 ft 352 kts 210°
2026-04-22 00:42 33.00045 -116.44821 13810 ft 343 kts 218°
2026-04-22 00:42 32.98224 -116.46573 13509 ft 331 kts 224°
2026-04-22 00:43 32.96520 -116.48367 13271 ft 320 kts 224°
2026-04-22 00:43 32.94899 -116.50051 12955 ft 310 kts 224°
2026-04-22 00:43 32.93260 -116.51744 12276 ft 305 kts 223°
2026-04-22 00:43 32.91710 -116.53327 11854 ft 283 kts 223°
2026-04-22 00:44 32.90248 -116.54810 11497 ft 272 kts 223°
2026-04-22 00:44 32.88759 -116.56319 11189 ft 286 kts 223°
2026-04-22 00:44 32.87263 -116.57828 10770 ft 276 kts 223°
2026-04-22 00:44 32.85854 -116.59243 10419 ft 257 kts 222°
2026-04-22 00:45 32.84537 -116.60565 10084 ft 239 kts 222°
2026-04-22 00:45 32.83285 -116.61826 9797 ft 233 kts 222°
2026-04-22 00:45 32.82055 -116.63068 9498 ft 229 kts 222°
2026-04-22 00:45 32.80843 -116.64288 9220 ft 228 kts 222°
2026-04-22 00:46 32.79638 -116.65502 8942 ft 231 kts 223°
2026-04-22 00:46 32.78400 -116.66746 8659 ft 235 kts 223°
2026-04-22 00:46 32.77237 -116.68074 8356 ft 227 kts 235°
2026-04-22 00:46 32.76416 -116.69675 8093 ft 228 kts 242°
2026-04-22 00:47 32.75647 -116.71353 7793 ft 233 kts 242°
2026-04-22 00:47 32.74866 -116.73044 7520 ft 234 kts 242°
2026-04-22 00:47 32.74087 -116.74713 7232 ft 232 kts 243°
2026-04-22 00:47 32.73300 -116.76399 6964 ft 233 kts 242°
2026-04-22 00:48 32.72504 -116.78090 6664 ft 233 kts 243°
2026-04-22 00:48 32.71719 -116.79750 6383 ft 233 kts 243°
2026-04-22 00:48 32.70927 -116.81423 6076 ft 232 kts 243°
2026-04-22 00:48 32.70259 -116.83147 5803 ft 228 kts 251°
2026-04-22 00:49 32.69719 -116.84928 5547 ft 227 kts 252°
2026-04-22 00:49 32.69196 -116.86658 5283 ft 223 kts 252°
2026-04-22 00:49 32.68680 -116.88373 5014 ft 218 kts 252°
2026-04-22 00:49 32.68187 -116.90065 4752 ft 213 kts 252°
2026-04-22 00:50 32.67704 -116.91716 4526 ft 211 kts 252°
2026-04-22 00:50 32.67323 -116.93370 4221 ft 202 kts 268°
2026-04-22 00:50 32.67507 -116.95003 4024 ft 200 kts 283°
2026-04-22 00:50 32.67880 -116.96589 3819 ft 203 kts 284°
2026-04-22 00:51 32.68284 -116.98206 3627 ft 205 kts 285°
2026-04-22 00:51 32.68689 -116.99839 3409 ft 204 kts 285°
2026-04-22 00:51 32.69084 -117.01440 3120 ft 199 kts 285°
2026-04-22 00:51 32.69467 -117.02992 2863 ft 193 kts 284°
2026-04-22 00:52 32.69837 -117.04501 2599 ft 187 kts 285°
2026-04-22 00:52 32.70191 -117.05944 2369 ft 181 kts 286°
2026-04-22 00:52 32.70526 -117.07321 2182 ft 165 kts 285°
2026-04-22 00:52 32.70846 -117.08626 1909 ft 166 kts 284°
2026-04-22 00:53 32.71160 -117.09913 1657 ft 156 kts 283°
2026-04-22 00:53 32.71452 -117.11105 1441 ft 149 kts 285°
2026-04-22 00:53 32.71739 -117.12284 1210 ft 151 kts 284°
2026-04-22 00:53 32.72030 -117.13475 1000 ft 147 kts 283°
2026-04-22 00:54 32.72305 -117.14639 731 ft 144 kts 283°
2026-04-22 00:54 32.72579 -117.15749 553 ft 139 kts 284°
2026-04-22 00:54 32.72847 -117.16867 321 ft 144 kts 283°
2026-04-22 00:54 32.73118 -117.18005 95 ft 142 kts 282°
2026-04-22 00:55 32.73404 -117.19166 26 ft 141 kts 295°
2026-04-22 00:55 32.73619 -117.20080 28 ft 62 kts 286°
2026-04-22 00:55 32.73569 -117.20264 27 ft 0 kts 197°
2026-04-22 00:57 32.73568 -117.20264 27 ft 1 kts 197°
2026-04-22 00:57 32.73559 -117.20265 27 ft 3 kts 176°
2026-04-22 00:57 32.73531 -117.20233 27 ft 6 kts 124°
2026-04-22 00:58 32.73515 -117.20184 27 ft 7 kts 97°
2026-04-22 00:58 32.73516 -117.20127 27 ft 7 kts 87°
2026-04-22 00:58 32.73518 -117.20064 27 ft 8 kts 89°
2026-04-22 00:58 32.73510 -117.19998 27 ft 8 kts 103°
2026-04-22 00:59 32.73493 -117.19931 27 ft 8 kts 114°
2026-04-22 00:59 32.73471 -117.19866 27 ft 9 kts 109°
2026-04-22 00:59 32.73452 -117.19797 27 ft 9 kts 108°
2026-04-22 00:59 32.73435 -117.19721 27 ft 10 kts 104°
2026-04-22 01:00 32.73417 -117.19641 26 ft 10 kts 104°
2026-04-22 01:00 32.73397 -117.19557 27 ft 10 kts 107°
2026-04-22 01:00 32.73360 -117.19414 27 ft 33 kts 106°
2026-04-22 01:00 32.73291 -117.19127 27 ft 36 kts 106°
2026-04-22 01:01 32.73223 -117.18842 27 ft 32 kts 106°
2026-04-22 01:01 32.73166 -117.18609 27 ft 29 kts 106°
2026-04-22 01:01 32.73197 -117.18447 26 ft 22 kts 10°
2026-04-22 01:01 32.73330 -117.18422 26 ft 0 kts 13°
2026-04-22 01:02 32.73381 -117.18407 26 ft 13 kts 15°
2026-04-22 01:02 32.73405 -117.18399 26 ft 0 kts 15°